This demonstration page uses our WeatherBlox Daily Observations layout. Learn more.

Left ArrowRight Arrow

39.08367, -84.50855

Hourly Observations for October 20, 2015

Temp ( °F °C ) Dew Point ( °F °C ) Humidity (%) Winds ( mph kmh ) Pressure ( in mb ) Visibility ( mi km ) Precip ( " mm )
12:53 am 00:53 Clear 41 5 39 3.9 93 93 Calm 30.28 1025 10 16 0.00 0.00
1:53 am 01:53 Clear 41 5 40 4.4 96 96 Calm 30.28 1026 10 16 0.00 0.00
2:53 am 02:53 Clear 41 5 41 5 100 100 Calm 30.29 1026 10 16 0.00 0.00
3:53 am 03:53 Clear 40 4.4 39 3.9 97 97 Calm 30.29 1026 10 16 0.00 0.00
4:53 am 04:53 Clear 40 4.4 39 3.9 97 97 Calm 30.29 1026 10 16 0.00 0.00
5:53 am 05:53 Clear 39 3.9 39 3.9 100 100 Calm 30.31 1026 10 16 0.00 0.00
6:53 am 06:53 Clear 39 3.9 39 3.9 100 100 Calm 30.32 1027 10 16 0.00 0.00
7:53 am 07:53 Sunny 39 3.9 39 3.9 100 100 Calm 30.33 1027 10 16 0.00 0.00
8:53 am 08:53 Sunny 42 5.6 41 5 96 96 Calm 30.35 1028 10 16 0.00 0.00
9:53 am 09:53 Sunny 54 12.2 46 7.8 75 75 undefined N/A 30.35 1028 10 16 0.00 0.00
10:53 am 10:53 Sunny 59 15 42 5.6 54 54 SSW 10 17 30.35 1028 10 16 0.00 0.00
11:53 am 11:53 Sunny 63 17.2 43 6.1 48 48 SW 9 15 30.34 1027 10 16 0.00 0.00
12:53 pm 12:53 Sunny 66 18.9 41 5 40 40 SSW 10 17 30.32 1027 10 16 0.00 0.00
1:53 pm 13:53 Sunny 68 20 41 5 38 38 SW 10 17 30.29 1026 10 16 0.00 0.00
2:53 pm 14:53 Sunny 69 20.6 42 5.6 38 38 S 8 13 30.26 1025 10 16 0.00 0.00
3:53 pm 15:53 Sunny 70 21.1 40 4.4 34 34 SSW 12 19 30.24 1024 10 16 0.00 0.00
4:53 pm 16:53 Sunny 70 21.1 40 4.4 34 34 SSW 8 13 30.24 1024 10 16 0.00 0.00
5:53 pm 17:53 Sunny 67 19.4 40 4.4 37 37 SSW 7 11 30.24 1024 10 16 0.00 0.00
6:53 pm 18:53 Clear 62 16.7 42 5.6 48 48 Calm 30.23 1024 10 16 0.00 0.00
7:53 pm 19:53 Clear 52 11.1 45 7.2 77 77 Calm 30.24 1024 10 16 0.00 0.00
8:53 pm 20:53 Clear 49 9.4 44 6.7 83 83 Calm 30.25 1024 10 16 0.00 0.00
9:53 pm 21:53 Clear 46 7.8 44 6.7 93 93 Calm 30.25 1024 10 16 0.00 0.00
10:53 pm 22:53 Clear 46 7.8 44 6.7 93 93 Calm 30.25 1025 10 16 0.00 0.00
11:53 pm 23:53 Clear 44 6.7 43 6.1 96 96 Calm 30.27 1025 10 16 0.00 0.00

Powered by AerisWeather